TimeCST,TemperatureF,Dew PointF,Humidity,Sea Level PressureIn,VisibilityMPH,Wind Direction,Wind SpeedMPH,Gust SpeedMPH,PrecipitationIn,Events,Conditions,WindDirDegrees,DateUTC
12:53 AM,36.0,33.1,89,30.14,3.0,Calm,Calm,-,N/A,,Clear,0,2012-11-08 06:53:00
1:53 AM,35.6,33.8,93,30.16,1.5,Calm,Calm,-,N/A,,Partly Cloudy,0,2012-11-08 07:53:00
1:57 AM,35.6,33.8,93,30.16,0.8,Calm,Calm,-,N/A,,Mist,0,2012-11-08 07:57:00
2:13 AM,35.6,33.8,93,30.17,1.5,Calm,Calm,-,N/A,,Partly Cloudy,0,2012-11-08 08:13:00
2:53 AM,34.0,32.0,92,30.17,0.5,Calm,Calm,-,N/A,Fog,Fog,0,2012-11-08 08:53:00
3:03 AM,33.8,32.0,93,30.17,0.2,Calm,Calm,-,N/A,Fog,Fog,0,2012-11-08 09:03:00
3:28 AM,33.8,32.0,93,30.17,0.2,Calm,Calm,-,N/A,Fog,Fog,0,2012-11-08 09:28:00
3:53 AM,33.1,30.9,92,30.19,0.5,NW,3.5,-,N/A,Fog,Fog,310,2012-11-08 09:53:00
4:53 AM,33.1,30.9,92,30.21,0.5,Calm,Calm,-,N/A,Fog,Fog,0,2012-11-08 10:53:00
5:05 AM,33.8,30.2,87,30.20,0.2,Calm,Calm,-,N/A,Fog,Fog,0,2012-11-08 11:05:00
5:24 AM,33.8,30.2,87,30.20,0.2,Calm,Calm,-,N/A,Fog,Fog,0,2012-11-08 11:24:00
5:34 AM,32.0,30.2,93,30.21,0.2,Calm,Calm,-,N/A,Fog,Fog,0,2012-11-08 11:34:00
5:46 AM,32.0,30.2,93,30.21,0.5,Calm,Calm,-,N/A,Fog,Fog,0,2012-11-08 11:46:00
5:53 AM,32.0,30.0,92,30.22,0.2,Calm,Calm,-,N/A,Fog,Fog,0,2012-11-08 11:53:00
6:14 AM,32.0,30.2,93,30.22,0.2,West,3.5,-,N/A,Fog,Fog,260,2012-11-08 12:14:00
6:53 AM,33.1,30.9,92,30.24,0.1,Calm,Calm,-,N/A,Fog,Fog,0,2012-11-08 12:53:00
7:38 AM,35.6,33.8,93,30.24,0.2,Calm,Calm,-,N/A,Fog,Fog,0,2012-11-08 13:38:00
7:53 AM,37.0,36.0,96,30.26,0.1,Calm,Calm,-,N/A,Fog,Fog,0,2012-11-08 13:53:00
8:00 AM,37.4,37.4,100,30.25,0.1,Calm,Calm,-,N/A,Fog,Fog,0,2012-11-08 14:00:00
8:15 AM,37.4,37.4,100,30.26,0.2,Calm,Calm,-,N/A,Fog,Fog,0,2012-11-08 14:15:00
8:22 AM,39.2,37.4,93,30.26,0.2,Calm,Calm,-,N/A,Fog,Fog,0,2012-11-08 14:22:00
8:53 AM,41.0,39.0,93,30.27,0.2,Calm,Calm,-,N/A,,Overcast,0,2012-11-08 14:53:00
9:03 AM,42.8,39.2,87,30.26,1.0,NE,4.6,-,N/A,,Overcast,40,2012-11-08 15:03:00
9:28 AM,44.6,41.0,87,30.26,2.0,Calm,Calm,-,N/A,,Mostly Cloudy,0,2012-11-08 15:28:00
9:53 AM,45.0,41.0,86,30.27,2.0,North,3.5,-,N/A,,Mostly Cloudy,360,2012-11-08 15:53:00
10:04 AM,46.4,41.0,81,30.26,4.0,Calm,Calm,-,N/A,,Scattered Clouds,0,2012-11-08 16:04:00
10:53 AM,51.1,42.1,71,30.26,6.0,WNW,5.8,-,N/A,,Scattered Clouds,290,2012-11-08 16:53:00
11:53 AM,54.0,42.1,64,30.24,7.0,North,3.5,-,N/A,,Partly Cloudy,10,2012-11-08 17:53:00
12:53 PM,57.0,41.0,55,30.22,9.0,North,4.6,-,N/A,,Partly Cloudy,10,2012-11-08 18:53:00
1:53 PM,59.0,39.0,48,30.20,10.0,Variable,3.5,-,N/A,,Partly Cloudy,0,2012-11-08 19:53:00
2:53 PM,57.9,37.9,47,30.20,10.0,North,3.5,-,N/A,,Clear,350,2012-11-08 20:53:00
3:53 PM,57.9,37.9,47,30.20,10.0,North,3.5,-,N/A,,Clear,360,2012-11-08 21:53:00
4:53 PM,53.1,37.0,55,30.20,10.0,Calm,Calm,-,N/A,,Clear,0,2012-11-08 22:53:00
5:53 PM,48.0,37.0,66,30.21,10.0,Calm,Calm,-,N/A,,Clear,0,2012-11-08 23:53:00
6:53 PM,45.0,37.9,76,30.22,9.0,Calm,Calm,-,N/A,,Clear,0,2012-11-09 00:53:00
7:53 PM,44.1,39.0,82,30.22,6.0,Calm,Calm,-,N/A,,Haze,0,2012-11-09 01:53:00
8:53 PM,42.1,37.0,82,30.23,8.0,East,4.6,-,N/A,,Clear,80,2012-11-09 02:53:00
9:53 PM,41.0,37.0,86,30.21,7.0,ESE,3.5,-,N/A,,Clear,110,2012-11-09 03:53:00
10:53 PM,39.0,36.0,89,30.21,6.0,East,3.5,-,N/A,,Clear,90,2012-11-09 04:53:00
11:53 PM,37.9,35.1,89,30.22,5.0,Calm,Calm,-,N/A,,Clear,0,2012-11-09 05:53:00